Regional Weather Roundup
Issued by NWS Glasgow, MT

Home | Current Version | Previous Version | Text Only | Print | Product List | Glossary On
Versions: 1 2 3 4 5 6 7 8 9 10 11 12 13 14 15 16 17 18 19 20 21 22 23 24 25 26 27 28 29 30 31 32 33 34 35 36 37 38 39 40 41 42 43 44 45 46 47 48 49 50
481
ASUS45 KGGW 170515
RWRGGW
HOURLY REGIONAL WEATHER ROUNDUP FOR NORTHEAST MONTANA
NATIONAL WEATHER SERVICE GLASGOW MONTANA
1000 PM MST SAT NOV 16 2019

NOTE: "FAIR" INDICATES FEW OR NO CLOUDS BELOW 12,000 FEET WITH NO
SIGNIFICANT WEATHER AND/OR OBSTRUCTIONS TO VISISBILITY.

NORTHEAST MONTANA


CITY           SKY/WX    TMP DP  RH WIND       PRES   REMARKS
GLASGOW        CLEAR     32  27  81 W6        30.06F
PLENTYWOOD       N/A     34  30  86 NW13G24     N/A
WOLF POINT     CLEAR     29  26  89 S3        30.08F
JORDAN           N/A     33  29  85 W7        30.10F
WINNETT          N/A     25  24  96 SW3         N/A
SIDNEY         CLEAR     28  27  96 SW5       30.09R
GLENDIVE       CLEAR     34  29  82 NW10      30.09S
MALTA            N/A     33  30  88 SW5         N/A

FORT PECK REPORTS


CITY           SKY/WX    TMP DP  RH WIND       PRES   REMARKS
FORT PECK        N/A     36  30  80 W8          N/A
THE PINES        N/A     39  29  67 SW8         N/A

SOUTHEAST MONTANA


CITY           SKY/WX    TMP DP  RH WIND       PRES   REMARKS
BILLINGS       PTCLDY    37  25  61 SW14      30.16R
MILES CITY     CLOUDY    41  32  70 W10       30.12F
BAKER          CLEAR     30  26  85 W9        30.10S
LIVINGSTON     MOCLDY    39  23  52 W15       30.18F

CENTRAL MONTANA


CITY           SKY/WX    TMP DP  RH WIND       PRES   REMARKS
HAVRE          PTCLDY    34  28  79 SW10      30.06F
LEWISTOWN      PTCLDY    33  24  69 SW12      30.10F
GREAT FALLS    MOCLDY    39  24  55 SW12      30.06F
CUT BANK       CLOUDY    41  24  51 W31G41    29.99F
HELENA         MOCLDY    40  26  57 S5        30.17F
BUTTE          CLOUDY    34  25  69 CALM      30.23F
BOZEMAN        MOCLDY    34  25  69 S7        30.23S

WESTERN MONTANA


CITY           SKY/WX    TMP DP  RH WIND       PRES   REMARKS
MISSOULA       CLOUDY    39  29  67 N3        30.25F
KALISPELL      NOT AVBL

NORTH DAKOTA


CITY           SKY/WX    TMP DP  RH WIND       PRES   REMARKS
WILLISTON      NOT AVBL
DICKINSON      CLEAR     35  31  85 NW16      30.01S
MINOT          CLOUDY    35  31  85 NW17G25   29.98R
BISMARCK       CLOUDY    40  32  73 NW21G28   30.00S

SOUTHERN SASKATCHEWAN


CITY           SKY/WX    TMP DP  RH WIND       PRES   REMARKS
REGINA         CLOUDY    32  30  93 NW10      30.02S
ESTEVAN        CLOUDY    34  32  93 NW16G23   30.00R
SWIFT CURRENT  CLEAR     30  28  93 SW10      29.99S





USA.gov is the U.S. government's official web portal to all federal, state and local government web resources and services.